Torna al catalogo

TJS-4

AttivoComunicazioniGEO
NORAD 44637·PAYLOAD·🇨🇳 China

Lanciato Oct 17, 2019 da Xichang Satellite Launch Center

Loading…

TLE

AggiornatoSource: Space-Track

Epoca: Sep 14, 2026, 15:54 UTC

1 44637U 19070A   26257.66298141 -.00000178  00000-0  00000+0 0  9996
2 44637   0.0486  98.2747 0002858 153.4573  64.0499  1.00274829 25431

Traccia TJS-4 in tempo reale con AllMySat

Download on the App Store